Date String (YYYY-MM-DD hh:mm:ss) UTC,Instrument flags,Ambient pressure (hPa),Sample flow (lpm),Bypass flow (lpm),Sample temperature (°C),Ambient temperature (°C),ASC tube jacket temperature (°C),LED temperature (°C),Box temperature (°C),Sample RH (%),Span deviation,Mass concentration (μg/m³),Mass concentration (μg/m³),Mass concentration (μg/m³)
DateTimeUTC,F1_M11,P_M11,Q1_M11,Q2_M11,T1_M11,T2_M11,T3_M11,T4_M11,T5_M11,U1_M11,ZSPAN_M11,X0_M11,X2_M11,X1_M11
2022-04-28 06:00:00,,0820.8,4.99,0.00,27.3,26.6,00.0,36.4,29.1,13.0,0000.8,0020.50,0007.88,0004.47
2022-04-28 06:01:00,,0820.8,5.02,0.00,27.3,26.6,00.0,36.4,29.1,13.0,0001.3,0020.30,0007.85,0004.46
2022-04-28 06:02:00,,0820.8,4.99,0.00,27.3,26.6,00.0,36.4,29.1,12.9,0001.2,0019.48,0007.77,0004.46
2022-04-28 06:03:00,,0820.8,4.99,0.00,27.3,26.6,00.0,36.4,29.1,12.9,0001.0,0019.97,0007.84,0004.46
2022-04-28 06:04:00,,0820.8,5.00,0.00,27.3,26.6,00.0,36.4,29.1,12.9,0000.5,0019.30,0007.80,0004.47
2022-04-28 06:05:00,,0820.8,5.00,0.00,27.3,26.6,00.0,36.4,29.1,12.9,0000.0,0018.66,0007.74,0004.47
2022-04-28 06:06:00,,0820.8,5.02,0.00,27.3,26.6,00.0,36.3,29.0,12.8,0000.0,0018.82,0007.79,0004.49
2022-04-28 06:07:00,,0820.8,5.00,0.00,27.3,26.5,00.0,36.3,29.0,12.8,0000.0,0019.09,0007.83,0004.51
2022-04-28 06:08:00,,0820.8,4.99,0.00,27.3,26.5,00.0,36.3,29.0,12.8,0000.0,0019.39,0007.91,0004.52
2022-04-28 06:09:00,,0820.8,5.01,0.00,27.3,26.5,00.0,36.3,29.0,12.8,0000.0,0019.20,0007.89,0004.52
2022-04-28 06:10:00,,0820.8,5.00,0.00,27.3,26.5,00.0,36.3,29.0,12.7,0000.0,0018.41,0007.84,0004.51
2022-04-28 06:11:00,,0820.7,5.00,0.00,27.3,26.5,00.0,36.3,29.0,12.5,0000.0,0018.37,0007.80,0004.49
2022-04-28 06:12:00,,0820.7,5.01,0.00,27.3,26.5,00.0,36.3,29.0,12.6,0001.5,0019.18,0007.83,0004.49
2022-04-28 06:13:00,,0820.7,5.00,0.00,27.3,26.5,00.0,36.3,29.0,12.6,0002.3,0019.37,0007.83,0004.50
2022-04-28 06:14:00,,0820.7,4.99,0.00,27.2,26.5,00.0,36.3,29.0,12.5,0000.0,0018.76,0007.74,0004.50
2022-04-28 06:15:00,,0820.7,5.02,0.00,27.2,26.5,00.0,36.3,29.0,12.5,0000.0,0019.17,0007.71,0004.50
2022-04-28 06:16:00,,0820.7,5.00,0.00,27.2,26.5,00.0,36.3,29.0,12.4,0000.0,0019.68,0007.81,0004.50
2022-04-28 06:17:00,,0820.7,4.99,0.00,27.2,26.5,00.0,36.3,29.0,12.2,0000.0,0019.98,0007.77,0004.50
2022-04-28 06:18:00,,0820.7,5.00,0.00,27.2,26.5,00.0,36.3,29.0,12.3,0004.0,0020.19,0007.84,0004.50
2022-04-28 06:19:00,,0820.7,5.01,0.00,27.2,26.5,00.0,36.3,29.0,12.3,0000.0,0020.78,0007.84,0004.50
2022-04-28 06:20:00,,0820.7,4.99,0.00,27.2,26.5,00.0,36.2,29.0,12.3,0000.0,0020.97,0007.90,0004.52
2022-04-28 06:21:00,,0820.7,4.99,0.00,27.2,26.5,00.0,36.2,29.0,12.4,0000.0,0021.17,0007.93,0004.54
2022-04-28 06:22:00,,0820.7,4.99,0.00,27.2,26.4,00.0,36.2,29.0,12.4,0000.0,0022.04,0008.01,0004.56
2022-04-28 06:23:00,,0820.7,5.02,0.00,27.2,26.4,00.0,36.2,28.9,12.3,0000.0,0021.61,0008.01,0004.56
2022-04-28 06:24:00,,0820.7,5.00,0.00,27.2,26.4,00.0,36.2,28.9,12.3,0000.0,0021.87,0008.08,0004.56
2022-04-28 06:25:00,,0820.7,5.00,0.00,27.2,26.4,00.0,36.2,28.9,12.2,0002.3,0022.33,0008.13,0004.57
2022-04-28 06:26:00,,0820.6,4.99,0.00,27.2,26.4,00.0,36.2,28.9,12.2,0002.9,0022.63,0008.21,0004.56
2022-04-28 06:27:00,,0820.6,5.02,0.00,27.2,26.4,00.0,36.2,28.9,12.1,0002.3,0022.49,0008.24,0004.54
2022-04-28 06:28:00,,0820.6,4.99,0.00,27.1,26.4,00.0,36.2,28.9,12.2,0002.4,0022.29,0008.23,0004.52
2022-04-28 06:29:00,,0820.6,5.00,0.00,27.1,26.4,00.0,36.2,28.9,12.1,0000.0,0022.47,0008.20,0004.52
2022-04-28 06:30:00,,0820.6,4.99,0.00,27.1,26.4,00.0,36.2,28.9,12.1,0000.0,0022.14,0008.18,0004.53
2022-04-28 06:31:00,,0820.6,5.01,0.00,27.1,26.4,00.0,36.2,28.9,12.1,0000.5,0022.18,0008.14,0004.51
2022-04-28 06:32:00,,0820.5,4.99,0.00,27.1,26.4,00.0,36.2,28.9,12.1,0001.0,0022.20,0008.17,0004.49
2022-04-28 06:33:00,,0820.6,4.99,0.00,27.1,26.4,00.0,36.2,28.8,12.0,0003.0,0021.37,0008.07,0004.49
2022-04-28 06:34:00,,0820.6,5.01,0.00,27.1,26.3,00.0,36.1,28.8,11.9,0003.2,0021.23,0008.15,0004.51
2022-04-28 06:35:00,,0820.5,5.01,0.00,27.1,26.3,00.0,36.1,28.8,11.9,0002.8,0020.61,0008.08,0004.51
2022-04-28 06:36:00,,0820.6,4.99,0.00,27.1,26.3,00.0,36.1,28.8,11.9,0002.7,0020.94,0008.00,0004.50
2022-04-28 06:37:00,,0820.6,5.00,0.00,27.1,26.3,00.0,36.1,28.8,11.9,0002.8,0020.58,0007.93,0004.50
2022-04-28 06:38:00,,0820.6,5.00,0.00,27.1,26.3,00.0,36.1,28.8,11.8,0002.7,0020.39,0007.90,0004.52
2022-04-28 06:39:00,,0820.5,5.00,0.00,27.1,26.3,00.0,36.1,28.8,11.6,0002.7,0020.58,0008.02,0004.54
2022-04-28 06:40:00,,0820.6,4.99,0.00,27.1,26.3,00.0,36.1,28.8,11.7,0002.7,0020.89,0008.04,0004.55
2022-04-28 06:41:00,,0820.6,5.00,0.00,27.0,26.3,00.0,36.1,28.8,11.7,0003.0,0020.79,0007.99,0004.56
2022-04-28 06:42:00,,0820.6,5.00,0.00,27.0,26.3,00.0,36.1,28.8,11.7,0002.9,0020.78,0008.02,0004.56
2022-04-28 06:43:00,,0820.6,4.99,0.00,27.0,26.3,00.0,36.1,28.8,11.7,0002.6,0020.97,0008.06,0004.58
2022-04-28 06:44:00,,0820.6,4.99,0.00,27.0,26.3,00.0,36.1,28.8,11.6,0002.1,0021.32,0008.15,0004.58
2022-04-28 06:45:00,,0820.5,4.99,0.00,27.0,26.4,00.0,36.1,28.8,11.5,0002.3,0021.28,0008.13,0004.59
2022-04-28 06:46:00,,0820.5,5.02,0.00,27.0,26.3,00.0,36.1,28.8,11.5,0002.3,0021.41,0008.13,0004.58
2022-04-28 06:47:00,,0820.5,4.99,0.00,27.0,26.3,00.0,36.1,28.8,11.4,0001.8,0021.09,0008.20,0004.61
2022-04-28 06:48:00,,0820.6,5.01,0.00,27.0,26.3,00.0,36.0,28.8,11.4,0001.4,0021.05,0008.27,0004.62
2022-04-28 06:49:00,,0820.5,5.01,0.00,27.0,26.3,00.0,36.0,28.7,11.4,0001.1,0021.65,0008.32,0004.62
2022-04-28 06:50:00,,0820.5,4.99,0.00,27.0,26.3,00.0,36.0,28.7,11.3,0000.7,0021.93,0008.35,0004.63
2022-04-28 06:51:00,,0820.5,5.01,0.00,27.0,26.3,00.0,36.0,28.8,11.3,0000.1,0022.67,0008.47,0004.64
2022-04-28 06:52:00,,0820.5,4.99,0.00,27.0,26.3,00.0,36.0,28.8,11.4,0000.2,0022.91,0008.57,0004.65
2022-04-28 06:53:00,,0820.5,5.00,0.00,27.0,26.3,00.0,36.0,28.7,11.2,0000.2,0022.65,0008.59,0004.65
2022-04-28 06:54:00,,0820.5,5.02,0.00,27.0,26.3,00.0,36.0,28.7,11.1,-000.3,0022.10,0008.49,0004.64
2022-04-28 06:55:00,,0820.4,4.99,0.00,27.0,26.3,00.0,36.0,28.7,11.2,0000.2,0021.94,0008.52,0004.63
2022-04-28 06:56:00,,0820.4,4.99,0.00,27.0,26.3,00.0,36.0,28.8,11.2,-000.1,0022.28,0008.47,0004.62
2022-04-28 06:57:00,,0820.4,5.00,0.00,27.0,26.3,00.0,36.0,28.8,11.2,0000.2,0023.14,0008.45,0004.62
2022-04-28 06:58:00,,0820.4,5.01,0.00,27.0,26.3,00.0,36.0,28.8,11.2,0000.7,0022.99,0008.42,0004.63
2022-04-28 06:59:00,,0820.4,4.99,0.00,27.0,26.3,00.0,36.0,28.8,11.2,0000.6,0022.80,0008.39,0004.65
